Location: St. Louis
(38.6270°N, 90.1994°W)
Time: 11:21:35
(UTC-06:00)

S-56A Canister/Altair - Pass Details

Date: 03 December 2021
Orbit: 634 x 2499 km, 38.9° (Epoch: 26 January)

Event Time Altitude Azimuth Distance (km) Brightness Sun altitude
Rises 05:46:44 0° 281° (W) 3,337 - -14.4°
Reaches altitude 10° 05:49:45 10° 268° (W) 2,220 - -13.8°
Exits shadow 05:51:04 16° 258° (WSW) 1,796 8.9 -13.6°
Maximum altitude 05:53:46 25° 213° (SSW) 1,306 8.6 -13.1°
Drops below altitude 10° 05:57:25 10° 157° (SSE) 2,001 10.3 -12.4°
Sets 06:00:00 0° 143° (SE) 2,935 11.5 -11.9°
